Tracking 33203 objects as of 15-Feb-2026
HD Live streaming from Space Station
objects crossing your sky now

BS-3A (YURI 3A)

Track BS-3A (YURI 3A) now!
BS-3A (YURI 3A) is classified as:


NORAD ID: 20771
Int'l Code: 1990-077A
Perigee: 36,144.9 km
Apogee: 36,272.0 km
Inclination: 15.6 °
Period: 1,457.3 minutes
Semi major axis: 42579 km
RCS: 1.6597 m2 (large)
Launch date: August 28, 1990
Source: Japan (JPN)
Launch site: TANEGASHIMA SPACE CENTER (TNSTA)
Your satellite tracking list
Your tracking list is empty




NASA's NSSDC Master Catalog

Two Line Element Set (TLE):
1 20771U 90077A   26046.44504341  .00000034  00000-0  00000-0 0  9990
2 20771  15.6086 358.3644 0014925 276.7482 269.5259  0.98810618134372
Source of the keplerian elements: AFSPC